GW4843 Weather Reports


time (UTC)temp
F
wind
direction
speed
knots
gust
knots
rain 1hr
in
rain 24hr
in
rain mn
in
humidity
%
barometer
mb
20260906232245 66 323 5.2 6.1 0.00 0.00 0.00 71 1016.5
20260906231745 65 339 4.3 5.2 0.00 0.00 0.00 73 1016.6
20260906231241 64 321 5.2 6.1 0.00 0.00 0.00 74 1017.0
20260906230740 65 309 4.3 5.2 0.00 0.00 0.00 75 1016.9
20260906230235 64 314 7.0 7.8 0.00 0.00 0.00 76 1017.0
20260906225733 64 311 5.2 6.1 0.00 0.00 0.00 76 1016.9
20260906225230 65 298 3.5 5.2 0.00 0.00 0.00 76 1016.8
20260906224725 65 347 2.6 2.6 0.00 0.00 0.00 73 1016.9
20260906224221 65 354 2.6 2.6 0.00 0.00 0.00 74 1017.0
20260906223717 65 330 5.2 7.0 0.00 0.00 0.00 74 1017.2
20260906223213 65 353 3.5 5.2 0.00 0.00 0.00 74 1017.1
20260906222711 65 341 4.3 5.2 0.00 0.00 0.00 74 1017.3
20260906222209 65 338 2.6 2.6 0.00 0.00 0.00 73 1017.3
20260906221708 66 331 2.6 2.6 0.00 0.00 0.00 73 1017.2
20260906221202 66 356 2.6 3.5 0.00 0.00 0.00 72 1017.1
20260906220657 66 335 5.2 5.2 0.00 0.00 0.00 71 1017.2
20260906220153 67 343 2.6 2.6 0.00 0.00 0.00 70 1017.2
20260906215652 67 10 2.6 3.5 0.00 0.00 0.00 70 1017.1
20260906215150 67 350 3.5 3.5 0.00 0.00 0.00 69 1017.1
20260906214644 67 344 1.7 1.7 0.00 0.00 0.00 70 1017.2
20260906214144 66 348 1.7 1.7 0.00 0.00 0.00 69 1017.2
20260906213638 66 353 1.7 2.6 0.00 0.00 0.00 70 1017.2
20260906213138 65 7 1.7 2.6 0.00 0.00 0.00 71 1017.2
20260906212635 65 74 0.9 0.9 0.00 0.00 0.00 70 1017.4
20260906212131 65 13 1.7 1.7 0.00 0.00 0.00 70 1017.2
20260906211631 66 26 3.5 3.5 0.00 0.00 0.00 70 1017.4
20260906211126 66 101 0.9 0.9 0.00 0.00 0.00 70 1017.2
20260906210622 65 26 3.5 3.5 0.00 0.00 0.00 70 1017.3
20260906210116 66 32 2.6 3.5 0.00 0.00 0.00 69 1017.3
20260906205612 66 41 1.7 1.7 0.00 0.00 0.00 69 1017.3
20260906205108 66 41 0.9 0.9 0.00 0.00 0.00 69 1017.2
20260906204607 65 27 3.5 3.5 0.00 0.00 0.00 70 1017.4
20260906204102 65 0 1.7 1.7 0.00 0.00 0.00 69 1017.6
20260906203601 65 93 0.9 0.9 0.00 0.00 0.00 69 1017.7
20260906203057 65 89 0.9 1.7 0.00 0.00 0.00 70 1017.6
20260906202553 65 33 2.6 2.6 0.00 0.00 0.00 70 1017.4
20260906202047 65 15 2.6 3.5 0.00 0.00 0.00 70 1017.4
20260906201542 65 11 1.7 2.6 0.00 0.00 0.00 69 1017.4
20260906201041 64 0 3.5 5.2 0.00 0.00 0.00 71 1017.7
20260906200537 64 23 2.6 2.6 0.00 0.00 0.00 71 1017.8
20260906200033 64 85 1.7 2.6 0.00 0.00 0.00 71 1017.8
20260906195528 64 349 1.7 2.6 0.00 0.00 0.00 73 1017.9
20260906195025 64 2 1.7 2.6 0.00 0.00 0.00 71 1017.7
20260906194520 64 22 2.6 3.5 0.00 0.00 0.00 71 1017.8
20260906194016 64 94 0.9 0.9 0.00 0.00 0.00 72 1017.9
20260906193515 64 89 0.9 1.7 0.00 0.00 0.00 72 1017.9
20260906193011 64 29 1.7 1.7 0.00 0.00 0.00 70 1017.9
20260906192506 64 83 0.9 0.9 0.00 0.00 0.00 73 1017.9
20260906192005 64 74 2.6 3.5 0.00 0.00 0.00 72 1017.8
20260906191500 64 60 2.6 3.5 0.00 0.00 0.00 72 1017.9
20260906190959 64 36 5.2 8.7 0.00 0.00 0.00 72 1017.9
20260906190458 64 51 1.7 2.6 0.00 0.00 0.00 73 1018.0
20260906185954 63 38 2.6 2.6 0.00 0.00 0.00 74 1017.9
20260906185453 63 75 1.7 1.7 0.00 0.00 0.00 74 1018.0
20260906184952 63 2 3.5 3.5 0.00 0.00 0.00 75 1017.9
20260906184447 63 65 3.5 5.2 0.00 0.00 0.00 75 1018.0
20260906183942 63 54 3.5 3.5 0.00 0.00 0.00 75 1018.0
20260906183438 63 13 5.2 7.0 0.00 0.00 0.00 75 1018.1
20260906182934 62 24 4.3 5.2 0.00 0.00 0.00 76 1018.2
20260906182429 62 58 1.7 2.6 0.00 0.00 0.00 77 1018.2
20260906181925 62 12 4.3 6.1 0.00 0.00 0.00 77 1018.2
20260906181420 62 25 5.2 8.7 0.00 0.00 0.00 78 1018.4
20260906180916 61 16 5.2 6.1 0.00 0.00 0.00 79 1018.5
20260906180411 61 12 7.0 8.7 0.00 0.00 0.00 79 1018.4
20260906175909 60 18 4.3 5.2 0.00 0.00 0.00 84 1018.4
20260906175404 60 73 6.1 7.8 0.00 0.00 0.00 85 1018.2
20260906174902 59 36 5.2 7.8 0.00 0.00 0.00 92 1018.0
20260906174402 58 67 4.3 5.2 0.00 0.00 0.00 96 1018.1
20260906173857 58 18 4.3 5.2 0.00 0.00 0.00 95 1018.2
20260906173353 57 22 5.2 7.0 0.00 0.00 0.00 94 1018.8
20260906172851 57 23 2.6 3.5 0.00 0.00 0.00 93 1019.3
20260906172349 57 335 2.6 2.6 0.00 0.00 0.00 92 1019.9
20260906171848 57 315 4.3 5.2 0.00 0.00 0.00 91 1019.9
20260906171343 57 325 3.5 5.2 0.00 0.00 0.00 91 1020.0
20260906170839 57 334 3.5 3.5 0.00 0.00 0.00 90 1019.7
20260906170335 57 338 3.5 3.5 0.00 0.00 0.00 89 1019.9
20260906165832 57 313 3.5 5.2 0.00 0.00 0.00 89 1019.9
20260906165330 57 313 3.5 5.2 0.00 0.00 0.00 89 1019.9
20260906164826 57 312 4.3 6.1 0.00 0.00 0.00 90 1019.9
20260906164325 57 299 3.5 3.5 0.00 0.00 0.00 90 1019.7
20260906163821 56 316 4.3 5.2 0.00 0.00 0.00 90 1019.7
20260906163317 56 303 4.3 5.2 0.00 0.00 0.00 90 1020.0
20260906162814 56 325 3.5 3.5 0.00 0.00 0.00 90 1020.1
20260906162314 56 308 3.5 5.2 0.00 0.00 0.00 91 1020.0
20260906161809 56 323 3.5 3.5 0.00 0.00 0.00 91 1019.9
20260906161308 56 326 3.5 3.5 0.00 0.00 0.00 91 1019.9
20260906160807 55 343 2.6 2.6 0.00 0.00 0.00 92 1019.9
20260906160301 55 329 3.5 5.2 0.00 0.00 0.00 92 1019.7
20260906155758 55 330 4.3 6.1 0.00 0.00 0.00 93 1019.9
20260906155254 55 310 4.3 6.1 0.00 0.00 0.00 93 1020.1
20260906154749 55 300 4.3 6.1 0.00 0.00 0.00 93 1020.1
20260906154244 54 323 3.5 5.2 0.00 0.00 0.00 93 1020.1
20260906153742 54 310 3.5 5.2 0.00 0.00 0.00 93 1020.3
20260906153237 54 328 4.3 5.2 0.00 0.00 0.00 92 1020.2
20260906152733 54 332 4.3 5.2 0.00 0.00 0.00 92 1020.5
20260906152233 54 350 6.1 7.0 0.00 0.00 0.00 91 1020.5
20260906151732 55 346 7.8 9.6 0.00 0.00 0.00 91 1020.4
20260906151228 55 328 7.8 8.7 0.00 0.00 0.00 90 1020.6
20260906150723 55 334 3.5 5.2 0.00 0.00 0.00 90 1020.7
20260906150219 56 337 5.2 6.1 0.00 0.00 0.00 89 1020.8
20260906145717 56 317 6.1 7.0 0.00 0.00 0.00 89 1020.7
20260906145217 56 315 7.0 8.7 0.00 0.00 0.00 90 1020.5
20260906144712 56 325 7.8 8.7 0.00 0.00 0.00 89 1020.5
20260906144207 56 324 11.3 13.9 0.00 0.00 0.00 89 1020.8
20260906143706 57 279 7.0 7.8 0.00 0.00 0.00 89 1020.9
20260906143204 58 287 6.1 7.8 0.00 0.00 0.00 87 1020.9
20260906142657 59 277 5.2 6.1 0.00 0.00 0.00 89 1020.6
20260906142153 59 290 5.2 6.1 0.00 0.00 0.00 89 1020.4
20260906141651 59 285 3.5 3.5 0.00 0.00 0.00 89 1020.4
20260906141146 59 318 0.9 0.9 0.00 0.00 0.00 89 1020.1
20260906140645 59 346 1.7 1.7 0.00 0.00 0.00 89 1020.1
20260906140141 58 342 1.7 1.7 0.00 0.00 0.00 89 1020.0
20260906135637 58 334 0.9 1.7 0.00 0.00 0.00 89 1020.3
20260906135133 59 298 1.7 1.7 0.00 0.00 0.00 89 1020.2
20260906134629 59 268 0.9 1.7 0.00 0.00 0.00 89 1020.4
20260906134124 58 77 0.9 0.9 0.00 0.00 0.00 88 1020.1
20260906133620 59 92 2.6 3.5 0.00 0.00 0.00 88 1020.0
20260906133114 58 104 0.9 0.9 0.00 0.00 0.00 88 1019.9
20260906132609 58 15 3.5 3.5 0.00 0.00 0.00 89 1020.0
20260906132105 58 359 2.6 3.5 0.00 0.00 0.00 89 1020.0
20260906131600 57 324 2.6 2.6 0.00 0.00 0.00 90 1019.9
20260906131056 57 317 3.5 5.2 0.00 0.00 0.00 90 1020.1
20260906130550 58 312 2.6 2.6 0.00 0.00 0.00 90 1020.1
20260906130045 57 13 1.7 2.6 0.00 0.00 0.00 90 1020.2
20260906125542 57 29 1.7 1.7 0.00 0.00 0.00 90 1020.0
20260906125037 57 24 2.6 3.5 0.00 0.00 0.00 90 1020.2
20260906124532 57 32 1.7 1.7 0.00 0.00 0.00 90 1020.2
20260906124027 57 34 3.5 3.5 0.00 0.00 0.00 90 1020.4
20260906123526 57 25 2.6 3.5 0.00 0.00 0.00 90 1020.4
20260906123021 57 1 3.5 5.2 0.00 0.00 0.00 90 1020.3
20260906122515 57 359 4.3 5.2 0.00 0.00 0.00 90 1020.2
20260906122012 57 8 2.6 3.5 0.00 0.00 0.00 90 1020.1
20260906121508 57 354 5.2 7.0 0.00 0.00 0.00 90 1020.0
20260906121004 57 6 5.2 6.1 0.00 0.00 0.00 90 1019.9
20260906120458 57 352 6.1 7.0 0.00 0.00 0.00 90 1019.6
20260906115955 57 352 4.3 6.1 0.00 0.00 0.00 90 1020.0
20260906115450 57 3 6.1 7.0 0.00 0.00 0.00 89 1020.0
20260906114949 57 4 7.8 9.6 0.00 0.00 0.00 89 1020.1
20260906114444 57 357 6.1 7.0 0.00 0.00 0.00 89 1020.0
20260906113940 57 1 5.2 7.0 0.00 0.00 0.00 89 1020.2
20260906113439 57 0 3.5 5.2 0.00 0.00 0.00 89 1020.2
20260906112934 57 354 3.5 3.5 0.00 0.00 0.00 89 1020.4
20260906112430 57 357 3.5 3.5 0.00 0.00 0.00 89 1020.2
20260906111925 57 0 3.5 5.2 0.00 0.00 0.00 88 1020.1
20260906111425 57 343 3.5 3.5 0.00 0.00 0.00 88 1020.1
20260906110920 57 347 5.2 7.0 0.00 0.00 0.00 88 1020.1
20260906110415 57 9 4.3 5.2 0.00 0.00 0.00 88 1020.1
20260906105914 57 356 6.1 6.1 0.00 0.00 0.00 88 1020.1
20260906105410 57 21 7.0 8.7 0.00 0.00 0.00 88 1020.1
20260906104906 57 356 5.2 6.1 0.00 0.00 0.00 88 1020.3
20260906104404 57 356 6.1 7.0 0.00 0.00 0.00 88 1020.2
20260906103903 57 17 7.8 8.7 0.00 0.00 0.00 88 1020.3
20260906103401 57 8 7.0 7.8 0.00 0.00 0.00 88 1020.4
20260906102857 57 8 5.2 7.0 0.00 0.00 0.00 88 1020.3
20260906102357 57 0 8.7 9.6 0.00 0.00 0.00 87 1020.1
20260906101851 57 11 4.3 5.2 0.00 0.00 0.00 87 1020.3
20260906101347 58 355 7.0 7.8 0.00 0.00 0.00 87 1020.2
20260906100842 58 3 6.1 7.0 0.00 0.00 0.00 87 1020.1
20260906100341 58 343 7.0 8.7 0.00 0.00 0.00 86 1020.3
20260906095836 58 356 7.8 8.7 0.00 0.00 0.00 86 1020.3
20260906095327 58 358 7.0 7.8 0.00 0.00 0.00 86 1020.4
20260906094826 58 350 7.8 8.7 0.00 0.00 0.00 86 1020.1
20260906094321 58 355 7.0 7.8 0.00 0.00 0.00 86 1020.3
20260906093818 58 6 7.0 7.8 0.00 0.00 0.00 86 1020.0
20260906093313 58 12 8.7 11.3 0.00 0.00 0.00 86 1020.0
20260906092807 59 358 8.7 12.2 0.00 0.00 0.00 86 1020.2
20260906092301 59 353 5.2 7.8 0.00 0.00 0.00 85 1020.1
20260906091757 59 11 7.0 7.8 0.00 0.00 0.00 85 1020.2
20260906091253 58 353 5.2 7.0 0.00 0.00 0.00 85 1020.3
20260906090749 58 354 6.1 7.0 0.00 0.00 0.00 86 1020.4
20260906090248 58 357 7.0 8.7 0.00 0.00 0.00 86 1020.5
20260906085748 58 352 5.2 7.0 0.00 0.00 0.00 87 1020.6
20260906085247 58 357 4.3 5.2 0.00 0.00 0.00 87 1020.6
20260906084742 58 339 3.5 3.5 0.00 0.00 0.00 87 1020.8
20260906084242 58 331 5.2 7.0 0.00 0.00 0.00 87 1020.9
20260906083737 58 330 4.3 5.2 0.00 0.00 0.00 87 1020.9
20260906083232 58 333 3.5 5.2 0.00 0.00 0.00 87 1021.2
20260906082727 58 331 4.3 5.2 0.00 0.00 0.00 87 1021.1
20260906082222 58 343 3.5 3.5 0.00 0.00 0.00 87 1021.1
20260906081719 58 340 4.3 5.2 0.00 0.00 0.00 87 1021.2
20260906081213 58 355 3.5 3.5 0.00 0.00 0.00 87 1021.3
20260906080710 58 6 3.5 3.5 0.00 0.00 0.00 87 1021.1
20260906080206 58 357 3.5 3.5 0.00 0.00 0.00 87 1021.2
20260906075706 57 357 3.5 3.5 0.00 0.00 0.00 88 1021.1
20260906075200 57 336 2.6 2.6 0.00 0.00 0.00 89 1021.4
20260906074655 56 2 0.9 1.7 0.00 0.00 0.00 90 1021.2
20260906074154 55 309 2.6 2.6 0.00 0.00 0.00 90 1021.5
20260906073650 55 312 2.6 3.5 0.00 0.00 0.00 91 1021.3
20260906073145 55 280 2.6 2.6 0.00 0.00 0.00 91 1021.2
20260906072640 56 294 1.7 1.7 0.00 0.00 0.00 90 1021.4
20260906072136 56 315 1.7 1.7 0.00 0.00 0.00 89 1021.4
20260906071632 56 317 1.7 1.7 0.00 0.00 0.00 89 1021.2
20260906071126 57 349 2.6 3.5 0.00 0.00 0.00 88 1021.5
20260906070623 57 0 3.5 3.5 0.00 0.00 0.00 87 1021.3
20260906070119 57 3 6.1 7.0 0.00 0.00 0.00 87 1021.1
20260906065618 57 17 6.1 8.7 0.00 0.00 0.00 87 1021.3
20260906065113 57 349 5.2 7.0 0.00 0.00 0.00 86 1021.3
20260906064609 58 342 7.0 7.0 0.00 0.00 0.00 85 1021.4
20260906064104 57 357 6.1 7.8 0.00 0.00 0.00 86 1021.6
20260906063559 57 344 2.6 3.5 0.00 0.00 0.00 87 1021.7
20260906063055 57 349 3.5 3.5 0.00 0.00 0.00 88 1021.9
20260906062551 57 315 5.2 6.1 0.00 0.00 0.00 88 1022.3
20260906062049 57 313 5.2 7.0 0.00 0.00 0.00 88 1022.0
20260906061546 57 329 3.5 3.5 0.00 0.00 0.00 87 1022.1
20260906061045 57 337 3.5 5.2 0.00 0.00 0.00 87 1021.9
20260906060542 57 346 4.3 6.1 0.00 0.00 0.00 87 1021.8
20260906060039 56 350 4.3 5.2 0.00 0.00 0.00 87 1021.8
20260906055535 56 335 5.2 6.1 0.00 0.06 0.06 87 1021.7
20260906055030 57 331 3.5 3.5 0.00 0.06 0.06 87 1021.8
20260906054530 57 333 5.2 6.1 0.00 0.06 0.06 87 1021.8
20260906054025 57 326 5.2 6.1 0.00 0.06 0.06 87 1021.8
20260906053521 57 335 4.3 5.2 0.00 0.06 0.06 86 1021.8
20260906053017 57 350 6.1 7.8 0.00 0.06 0.06 86 1021.5
20260906052512 57 359 7.0 7.8 0.00 0.06 0.06 86 1021.5
20260906052009 57 1 5.2 7.0 0.00 0.06 0.06 87 1021.3
20260906051504 57 11 5.2 7.0 0.00 0.06 0.06 87 1021.2
20260906051000 57 0 5.2 7.0 0.00 0.06 0.06 86 1021.2
20260906050500 57 6 8.7 9.6 0.00 0.06 0.06 86 1021.3
20260906045959 57 354 5.2 6.1 0.00 0.06 0.06 86 1021.2
20260906045458 57 0 7.8 8.7 0.00 0.06 0.06 86 1021.1
20260906044954 57 4 5.2 7.0 0.12 0.06 0.06 87 1020.9
20260906044449 57 8 7.0 7.8 0.12 0.06 0.06 87 1021.1
20260906043945 58 348 7.8 8.7 0.00 0.04 0.04 84 1021.1
20260906043440 58 354 7.0 7.8 0.00 0.04 0.04 83 1021.3
20260906042936 58 357 4.3 6.1 0.00 0.04 0.04 82 1021.9
20260906042435 58 340 4.3 6.1 0.00 0.04 0.04 82 1021.5
20260906041930 58 10 7.8 8.7 0.00 0.04 0.04 82 1020.7
20260906041427 58 357 8.7 9.6 0.00 0.04 0.04 82 1020.6
20260906040926 58 351 8.7 12.2 0.00 0.04 0.04 82 1020.5
20260906040421 58 359 8.7 11.3 0.00 0.04 0.04 82 1020.4
20260906035917 58 355 7.8 8.7 0.00 0.04 0.04 82 1020.2
20260906035412 58 350 7.8 11.3 0.00 0.04 0.04 82 1020.2
20260906034908 58 3 6.1 8.7 0.00 0.04 0.04 81 1020.5
20260906034408 58 347 6.1 6.1 0.00 0.04 0.04 81 1020.6
20260906033903 58 1 7.0 7.8 0.00 0.04 0.04 81 1020.6
20260906033403 58 343 7.0 7.8 0.00 0.04 0.04 80 1020.5
20260906032859 58 8 7.0 7.8 0.00 0.04 0.04 81 1020.8
20260906032355 58 292 5.2 7.8 0.00 0.04 0.04 81 1020.8
20260906031855 59 4 4.3 5.2 0.07 0.04 0.04 80 1020.8
20260906031350 59 347 4.3 5.2 0.07 0.04 0.04 77 1020.9
20260906030845 62 354 9.6 11.3 0.00 0.03 0.03 66 1020.7
20260906030340 62 357 6.1 7.0 0.00 0.03 0.03 65 1021.7
20260906025835 62 342 7.0 7.8 0.00 0.03 0.03 65 1021.1
20260906025328 62 345 10.4 13.0 0.00 0.03 0.03 65 1020.1
20260906024827 62 0 9.6 13.0 0.00 0.03 0.03 66 1019.6
20260906024321 62 8 8.7 12.2 0.00 0.03 0.03 66 1019.2
20260906023817 62 20 6.1 7.8 0.00 0.03 0.03 65 1019.2
20260906023313 62 21 8.7 11.3 0.00 0.03 0.03 65 1019.2
20260906022808 62 12 7.8 8.7 0.00 0.03 0.03 64 1019.3
20260906022306 62 41 13.9 15.6 0.00 0.03 0.03 64 1019.2
20260906021758 63 18 7.8 9.6 0.00 0.03 0.03 64 1019.1
20260906021252 63 6 8.7 12.2 0.00 0.03 0.03 63 1019.0
20260906020746 63 2 7.0 8.7 0.00 0.03 0.03 63 1019.1
20260906020241 63 28 9.6 11.3 0.00 0.03 0.03 62 1019.2
20260906015736 64 13 4.3 5.2 0.00 0.03 0.03 61 1019.2
20260906015234 64 10 5.2 6.1 0.00 0.03 0.03 60 1019.0
20260906014728 65 8 8.7 11.3 0.00 0.03 0.03 59 1019.1
20260906014224 65 355 7.0 8.7 0.00 0.03 0.03 58 1019.0
20260906013720 65 9 3.5 5.2 0.00 0.03 0.03 57 1018.9
20260906013220 66 18 5.2 7.0 0.00 0.03 0.03 57 1019.1
20260906012715 66 13 4.3 6.1 0.00 0.03 0.03 56 1018.9
20260906012210 66 8 5.2 7.0 0.00 0.03 0.03 56 1019.1
20260906011705 67 27 6.1 7.8 0.00 0.03 0.03 55 1019.0
20260906011159 67 26 6.1 7.0 0.00 0.03 0.03 54 1019.0
20260906010649 67 354 7.0 7.8 0.00 0.03 0.03 54 1019.1
20260906010146 68 12 4.3 5.2 0.00 0.03 0.03 54 1019.0
20260906005645 68 22 6.1 7.8 0.00 0.03 0.03 52 1019.1
20260906005144 69 6 5.2 6.1 0.00 0.03 0.03 51 1019.2
20260906004644 69 21 6.1 7.0 0.00 0.03 0.03 51 1019.0
20260906004139 69 27 6.1 9.6 0.00 0.03 0.03 50 1019.0
20260906003634 70 23 4.3 7.0 0.00 0.03 0.03 50 1019.0
20260906003130 71 10 5.2 6.1 0.00 0.03 0.03 47 1019.1
20260906002625 72 13 7.0 8.7 0.00 0.03 0.03 46 1019.1
20260906002119 72 23 5.2 7.0 0.00 0.03 0.03 43 1019.1
20260906001615 71 63 2.6 2.6 0.00 0.03 0.03 44 1019.1
20260906001114 72 10 4.3 6.1 0.00 0.03 0.03 44 1019.2
20260906000611 73 25 5.2 6.1 0.00 0.03 0.03 43 1019.3
20260906000106 72 14 3.5 5.2 0.00 0.03 0.03 43 1019.2
20260905235604 72 44 7.0 7.8 0.00 0.03 0.03 43 1019.1
20260905235100 72 352 4.3 5.2 0.00 0.03 0.03 43 1019.3
20260905234555 73 21 4.3 6.1 0.00 0.03 0.03 43 1019.2
20260905234050 73 1 5.2 6.1 0.00 0.03 0.03 43 1019.2
20260905233544 73 13 4.3 6.1 0.00 0.03 0.03 43 1019.1
20260905233045 73 356 4.3 5.2 0.00 0.03 0.03 42 1019.4